Wind_Speed
40 37 38 33 26 23 19 19 21 21 30 9 28 31 32 21 21 16 5 4 4 3 3 5 5 3 3 2 5 4 4 2 2 2 2 3 3 3 3 4 5 5 5 3 1 1 6 2 2 5 3 3 2 1
38 39 32 28 24 21 17 15 17 16 18 23 27 28 24 21 27 15 6 18 17 6 3 11 18 16 7 1 4 3 2 2 3 3 1 2 2 1 3 3 1 2 5 4 6 3 2 3 3 2 3 3 2 1
37 32 32 23 23 17 16 17 15 15 10 24 23 26 17 23 31 10 16 15 12 4 3 5 4 10 13 9 4 4 1 3 1 2 3 2 2 2 3 4 2 2 1 3 3 2 3 4 3 3 2 2 2 1
36 31 25 21 16 14 16 20 17 19 14 24 25 20 19 21 24 17 15 10 9 4 4 3 5 4 9 9 7 5 6 4 4 2 3 2 2 1 2 1 2 4 4 4 2 4 5 1 1 4 3 1 1 3
31 29 21 16 11 12 19 30 23 25 31 27 25 19 23 19 20 21 14 7 7 6 4 2 3 11 11 11 16 13 9 4 3 3 3 1 0 2 1 2 2 3 4 4 4 8 3 3 5 4 2 2 3 3
29 21 17 11 7 10 12 13 32 36 32 30 24 22 22 19 22 22 2 2 11 10 4 3 2 5 9 11 16 14 8 4 3 3 2 1 1 2 2 2 2 1 2 2 4 4 4 5 6 3 1 3 4 5
25 17 12 11 10 11 8 8 20 32 30 28 24 23 20 22 21 3 3 9 15 8 3 3 2 3 4 4 4 4 6 2 3 2 2 2 1 3 2 2 1 4 5 5 4 6 3 3 4 2 3 5 6 8
18 14 16 16 14 15 8 2 31 30 28 25 23 23 19 12 8 5 11 17 10 10 4 4 2 2 3 2 2 3 2 2 4 2 1 1 1 1 2 3 4 5 6 5 4 3 3 3 2 3 4 4 4 6
17 19 19 17 20 17 14 31 34 30 28 28 28 26 12 1 3 6 11 9 7 4 4 3 5 4 1 1 2 2 1 3 2 2 0 1 0 2 3 4 6 6 5 7 4 4 3 1 4 5 4 5 4 6
19 21 20 22 22 22 15 40 34 32 30 33 24 5 2 3 14 13 3 3 4 3 3 3 0 3 3 2 2 2 2 1 1 1 1 0 3 1 2 6 6 6 7 7 4 1 2 3 4 4 5 6 7 7
22 21 21 21 28 29 46 45 41 36 34 9 3 2 7 15 4 2 2 3 0 3 2 2 3 5 1 3 3 1 2 1 1 3 2 2 2 3 3 4 4 5 5 3 2 1 3 4 5 6 7 8 11 13
24 21 17 12 39 56 53 48 46 30 16 11 12 10 6 3 3 4 0 2 3 4 2 4 3 3 2 2 3 1 3 1 2 1 2 2 3 5 6 5 5 4 3 1 1 3 7 8 10 9 10 13 16 19
26 22 17 30 54 52 51 50 47 24 19 12 3 4 2 2 3 6 5 2 3 5 4 3 3 3 2 3 3 3 3 2 2 2 3 4 3 5 6 5 4 3 1 3 5 7 8 11 13 13 15 19 19 21
30 28 23 23 52 50 48 48 34 23 4 2 4 4 4 2 4 3 3 4 3 5 7 5 3 3 2 3 2 4 2 3 2 1 5 3 6 6 6 4 3 2 2 4 7 10 11 12 15 18 17 18 19 19
36 32 18 48 49 46 46 35 28 10 0 2 2 4 3 2 2 1 2 3 2 5 4 4 4 3 2 4 1 3 3 2 4 4 3 3 6 6 5 4 3 3 3 4 7 7 11 13 15 20 21 19 20 22
40 23 35 54 52 47 35 28 15 0 3 3 4 4 1 3 1 3 4 6 1 4 2 3 4 4 2 4 3 4 6 5 4 3 3 3 6 6 4 3 4 5 6 7 7 8 12 15 17 20 23 22 19 19
41 6 52 58 53 39 29 15 2 4 3 3 1 2 2 1 3 3 3 3 4 3 3 3 5 4 3 3 1 3 5 3 3 3 2 5 6 6 5 5 6 6 7 8 9 11 15 19 19 20 15 22 24 24
14 47 59 59 47 33 11 2 4 3 4 3 3 1 1 2 4 4 3 2 2 2 2 3 5 3 5 5 3 3 3 2 2 2 2 3 4 5 6 7 8 7 9 13 14 17 17 19 17 14 19 24 25 22
49 61 62 51 44 13 4 2 3 4 2 1 1 2 2 3 3 2 3 3 3 4 5 2 5 3 3 3 4 3 2 2 3 3 2 3 5 7 8 10 10 12 15 17 18 18 21 21 21 21 21 20 17 19
62 63 53 47 28 5 4 2 2 4 3 2 2 2 2 3 1 2 3 3 2 2 3 2 3 3 4 3 3 3 3 4 4 2 2 3 5 7 10 10 13 15 17 21 23 20 19 20 19 17 16 18 17 19
60 53 45 26 4 8 4 2 3 2 3 3 1 2 1 2 3 3 3 3 3 2 1 3 2 1 2 4 4 4 6 9 4 4 3 2 2 4 9 12 13 14 15 14 12 15 15 16 21 18 17 19 20 21
39 42 13 5 4 4 4 5 4 3 3 2 2 2 3 2 2 2 3 3 2 3 3 3 2 2 2 2 3 4 6 8 5 4 3 4 2 3 6 12 10 10 17 16 17 15 18 20 20 16 15 19 20 21
35 22 6 3 5 4 2 2 4 2 5 3 1 3 2 1 1 2 0 2 3 2 1 2 4 3 4 3 3 3 6 8 6 6 7 7 8 11 13 17 18 16 13 18 16 17 19 18 16 14 19 20 17 17
27 6 3 3 4 4 3 3 2 3 3 2 3 4 2 2 1 3 2 3 2 1 1 3 6 3 3 2 1 3 5 7 8 8 8 6 7 13 17 19 18 15 14 17 18 16 15 17 20 21 21 21 20 17
6 3 3 4 2 5 5 3 2 3 4 3 4 2 2 1 2 1 3 3 2 2 2 5 4 2 3 2 3 2 2 5 5 3 8 6 10 15 19 17 14 11 10 10 15 20 21 21 24 21 19 18 17 17
6 2 2 3 1 4 4 5 4 5 4 4 4 2 2 2 3 5 3 3 3 4 4 5 5 3 2 6 2 1 4 3 2 3 10 8 9 9 9 5 5 10 6 15 17 22 20 18 18 17 18 19 17 19
4 1 1 2 3 4 4 3 3 4 5 5 4 4 3 3 4 4 2 2 2 5 9 15 17 9 7 7 6 4 2 3 4 6 10 11 7 5 5 5 8 13 18 18 16 15 16 17 17 19 21 20 18 18
2 3 6 3 3 1 6 3 3 3 4 3 5 4 10 8 5 3 3 3 6 9 12 13 12 6 7 7 3 1 2 1 3 3 3 4 4 7 3 14 14 12 14 15 16 16 16 17 19 18 13 18 23 22
2 1 3 3 4 5 4 2 3 2 2 2 4 3 3 2 1 1 3 9 14 16 19 16 11 10 6 5 6 5 3 4 6 4 3 4 6 4 15 11 11 14 15 17 16 14 14 15 14 16 17 17 17 16
2 1 4 4 4 3 1 2 2 2 2 2 2 2 2 1 1 5 9 12 13 12 13 10 12 9 9 10 6 3 1 2 2 1 3 4 7 14 11 12 13 14 14 16 16 15 13 12 15 15 16 16 16 17
2 2 4 4 4 2 2 2 1 3 2 3 3 2 2 1 1 3 5 8 10 12 13 12 11 11 11 9 4 2 1 2 5 9 11 10 8 9 11 12 12 13 12 12 12 13 14 15 15 16 17 17 17 16
3 3 4 4 3 1 1 2 2 2 2 2 3 2 2 2 1 2 7 10 11 12 10 15 13 11 9 6 4 2 1 4 8 10 8 5 7 10 12 11 12 10 11 11 10 12 13 14 16 17 17 17 17 17
3 2 4 4 3 2 2 2 3 2 2 2 2 1 1 1 3 3 7 11 10 13 15 13 10 9 7 6 4 3 3 8 9 7 6 6 7 9 11 12 9 9 7 8 9 12 13 14 15 16 16 17 17 17
Wind_Direction
312 310 309 303 299 289 285 293 303 317 341 187 167 175 180 196 185 182 98 45 89 97 18 10 13 64 65 86 137 190 81 343 57 94 131 196 131 222 116 168 173 166 153 188 133 168 269 103 63 162 179 70 102 5
311 312 305 302 297 287 278 287 293 317 334 162 164 172 181 187 182 159 97 97 91 77 129 90 66 53 55 58 127 35 146 116 171 103 99 108 121 90 146 199 61 186 184 181 179 213 25 347 116 135 119 121 199 237
308 309 307 298 292 275 272 277 280 301 299 159 162 169 180 180 183 164 135 122 88 96 52 45 355 12 43 32 36 118 300 157 75 178 147 137 136 127 159 234 132 309 129 126 126 130 106 99 69 84 89 147 171 277
309 306 297 293 273 264 267 270 266 277 189 165 168 174 171 162 177 182 155 157 107 105 98 319 13 26 15 42 63 71 122 98 97 59 85 104 133 132 202 220 163 202 126 134 80 50 84 325 139 159 144 141 318 315
305 304 289 276 254 268 280 280 252 187 159 158 161 165 160 161 168 167 152 160 146 117 131 154 304 25 41 63 68 79 84 80 49 46 55 104 8 91 5 40 272 190 176 164 221 169 144 152 178 162 149 214 245 266
302 294 278 246 239 273 276 121 153 150 147 150 154 157 164 165 151 139 63 133 140 124 104 92 300 2 16 49 57 47 48 62 81 102 113 71 269 100 111 211 292 49 77 168 157 137 115 136 156 144 240 258 263 259
297 278 239 212 212 239 261 84 140 145 144 153 156 157 165 169 167 103 174 157 154 121 95 107 35 319 339 12 32 24 34 59 85 94 72 137 34 78 133 213 199 131 117 92 107 110 86 158 179 244 235 278 286 290
274 240 216 203 202 220 228 309 148 144 150 153 154 160 160 160 132 73 118 139 140 96 74 105 85 30 0 43 57 1 49 33 18 128 40 92 21 64 245 244 143 136 115 106 113 82 138 143 163 272 282 296 295 291
244 222 211 204 203 211 216 158 150 152 150 149 148 148 149 152 101 144 137 119 96 91 116 98 137 176 0 82 102 32 61 64 287 81 78 86 325 231 227 166 168 178 178 169 157 139 152 184 274 279 275 280 265 285
225 214 212 207 214 206 234 160 156 157 156 151 144 165 127 131 134 134 127 38 22 359 40 92 78 109 108 137 75 88 10 108 57 282 36 143 258 283 304 189 159 164 154 146 136 217 234 284 265 286 268 263 249 258
212 209 213 215 233 214 166 157 156 152 150 170 132 89 119 130 133 41 87 103 251 47 32 129 137 128 250 110 120 84 121 321 168 262 139 261 271 212 174 130 149 154 160 147 139 172 261 254 284 297 304 297 292 292
201 199 210 227 162 155 155 156 155 154 180 178 120 115 111 71 40 97 260 322 64 169 143 117 153 127 118 93 93 239 119 83 199 153 221 249 243 179 166 176 176 169 160 177 263 293 299 307 304 299 293 290 293 298
192 186 204 152 151 151 156 158 158 163 146 138 107 76 119 304 46 148 181 231 139 172 167 148 105 115 91 68 76 88 88 179 136 175 234 227 211 181 177 171 170 165 66 346 320 306 302 302 303 300 295 301 302 298
183 181 190 168 155 160 160 155 163 161 181 138 132 131 165 226 244 181 173 152 162 118 127 120 95 105 114 75 135 89 114 111 75 14 237 242 206 189 183 182 156 172 337 290 288 294 297 296 298 306 308 311 309 298
180 180 196 161 160 161 159 165 169 173 49 99 79 175 175 136 77 88 148 87 58 130 118 97 65 87 54 93 91 111 137 243 204 230 231 229 189 175 188 184 182 235 266 280 279 285 291 304 306 306 318 317 314 312
171 172 166 162 162 157 163 159 162 169 56 75 64 96 124 79 348 29 94 122 207 133 96 59 99 71 64 127 98 204 131 214 240 219 226 162 171 186 190 191 221 241 256 266 285 296 309 311 311 310 313 315 319 317
174 193 163 158 153 156 145 145 125 48 92 57 10 53 154 63 120 147 133 146 146 74 112 108 83 174 92 61 214 187 198 220 217 234 214 178 174 195 201 221 242 240 250 273 288 295 298 308 313 312 310 318 323 319
186 158 155 153 150 141 125 83 94 76 66 19 79 334 12 25 101 97 110 99 86 100 112 167 123 112 163 157 247 234 221 247 230 213 196 184 190 207 216 229 241 247 263 275 283 293 297 304 306 294 304 315 316 312
154 149 154 153 150 134 112 49 58 96 86 135 83 23 46 74 55 41 72 64 74 93 108 55 89 158 205 205 196 231 228 190 173 197 223 233 230 238 249 247 255 263 269 278 288 289 294 299 292 294 300 308 300 304
147 150 151 151 161 102 92 32 84 94 114 176 65 40 53 75 71 36 52 36 59 85 55 98 175 196 163 202 186 172 177 161 128 126 269 274 267 250 248 259 271 284 292 294 295 294 293 297 302 303 300 300 298 302
141 147 146 155 88 66 83 124 66 100 119 79 169 69 53 20 36 23 8 355 52 159 153 207 178 133 118 102 139 146 145 151 169 173 197 261 286 294 296 295 299 300 291 286 281 292 292 282 302 309 305 307 310 307
143 146 133 84 89 76 81 12 112 116 71 124 81 58 79 72 11 358 312 35 234 229 181 161 190 145 112 137 164 174 158 160 158 179 213 254 281 310 306 314 314 292 296 290 292 286 294 312 316 314 313 316 316 310
133 142 79 95 90 55 98 19 86 19 123 146 84 82 37 68 258 338 316 224 257 249 204 120 107 98 133 122 151 183 186 177 178 218 242 253 274 289 296 301 309 295 293 302 317 313 313 322 323 324 323 324 320 318
135 63 71 73 78 111 115 56 81 95 104 89 82 112 169 150 301 51 239 255 248 257 140 138 126 73 46 36 304 241 215 220 223 246 252 261 281 302 315 311 316 317 313 314 328 345 349 337 331 332 333 331 330 325
92 2 83 57 16 107 98 88 70 75 98 114 119 99 128 213 86 82 236 266 238 212 192 147 131 100 151 238 277 285 215 220 208 238 298 287 299 308 314 324 330 338 332 341 344 333 326 326 325 328 328 330 324 322
90 357 80 151 140 108 165 120 152 139 122 91 70 106 215 100 92 238 227 220 208 180 172 169 164 158 246 215 152 103 103 115 229 261 310 341 331 307 290 295 323 329 330 330 327 321 316 320 328 329 324 324 327 329
107 211 46 46 104 123 101 61 89 90 93 133 160 171 157 100 242 247 272 235 170 182 174 184 177 159 148 144 156 157 182 292 292 301 312 317 331 351 339 346 321 322 327 327 335 338 330 331 329 324 318 324 330 327
105 153 141 181 100 264 115 97 95 114 153 169 145 147 156 189 217 227 206 145 118 131 138 154 165 138 130 129 122 90 121 49 353 347 64 39 11 346 353 335 331 335 334 339 338 333 330 326 320 324 331 327 324 326
85 98 97 57 76 51 45 77 112 131 129 171 103 161 216 230 231 168 140 146 133 142 133 137 144 149 143 135 125 117 87 25 41 27 327 294 325 307 325 342 345 343 345 337 337 332 326 325 330 329 323 325 325 328
140 71 94 52 64 75 46 335 96 100 66 70 84 86 39 6 66 123 134 144 159 165 156 153 159 171 156 151 142 125 40 18 23 353 211 262 291 318 340 348 348 346 343 336 330 332 342 339 338 345 351 351 349 343
64 95 83 50 76 31 24 349 34 73 54 56 359 104 149 250 149 156 173 177 168 163 156 145 146 152 150 150 148 143 315 274 300 309 306 306 323 339 349 348 339 336 345 346 344 347 351 357 0 358 357 353 352 344
36 47 119 102 102 122 354 36 54 69 24 55 359 15 14 50 95 277 176 165 164 164 167 165 160 170 166 170 173 187 281 316 313 311 304 307 345 350 348 332 327 326 324 332 346 0 5 4 2 358 353 352 351 350
89 63 81 103 117 171 196 108 35 84 41 56 28 21 21 104 187 241 189 186 178 175 169 162 165 166 176 185 202 246 300 327 320 310 299 314 321 330 319 318 330 324 329 353 6 10 13 10 5 0 0 358 355 355
Height
726 720 716 712 712 711 712 711 708 703 696 692 699 709 718 725 730 734 737 737 738 759 769 766 765 763 765 768 773 776 777 778 783 784 787 792 792 789 791 791 794 797 808 808 809 806 805 794 795 796 807 810 812 813
718 713 709 705 705 704 705 706 704 703 699 698 702 710 719 725 730 734 739 740 741 750 771 770 770 770 770 771 773 777 778 778 781 785 789 794 790 797 797 797 790 794 794 798 801 798 801 803 802 805 806 809 811 811
710 706 703 701 698 700 700 700 701 701 704 702 707 713 721 725 730 734 737 741 744 760 772 772 776 774 773 772 772 775 781 779 781 782 787 790 785 797 796 797 792 790 792 796 797 804 808 807 807 807 809 809 809 810
703 699 697 698 696 695 696 694 696 698 701 706 711 718 723 727 732 736 737 741 744 755 773 784 777 776 775 773 771 771 773 777 780 783 789 794 790 798 800 794 795 795 793 799 807 813 811 810 810 810 810 811 812 811
696 693 692 692 694 694 691 687 686 692 698 706 714 721 725 730 733 736 740 742 742 747 774 784 781 780 777 776 774 773 775 779 785 791 797 795 801 800 805 803 802 795 795 799 797 799 802 806 808 809 810 810 809 810
690 687 687 688 690 690 689 682 685 692 699 708 717 723 729 732 734 738 744 744 743 744 763 783 786 784 781 779 777 778 780 784 789 794 801 802 800 802 808 805 796 796 794 794 798 799 801 804 805 807 808 807 808 808
683 683 685 688 691 691 692 691 696 699 705 713 720 725 730 733 735 738 739 739 743 744 758 786 793 786 785 783 784 785 785 789 791 799 801 802 802 804 804 802 796 797 797 798 798 800 804 804 807 805 805 805 805 804
679 680 683 688 689 693 694 695 698 704 712 718 723 729 733 736 738 739 740 741 743 745 756 788 792 792 786 790 792 791 793 794 798 801 802 802 803 804 804 796 797 797 799 800 800 800 800 801 803 803 802 803 802 802
673 676 680 683 688 692 697 698 701 709 717 722 727 733 737 735 737 740 742 743 744 748 767 782 789 796 787 789 792 794 794 800 801 800 802 803 804 806 792 794 796 796 796 799 800 800 801 802 802 802 802 800 799 798
670 673 676 680 684 689 695 697 704 713 720 725 728 731 737 736 738 741 745 746 749 754 760 779 788 787 788 786 792 798 796 803 821 803 803 801 799 792 792 789 791 794 795 797 799 803 801 805 801 800 799 797 797 795
665 669 671 674 677 682 691 696 705 715 721 723 725 732 735 737 740 742 749 754 758 766 767 777 782 782 786 794 790 795 797 798 802 811 807 807 800 794 792 792 793 794 795 796 797 797 798 798 798 797 795 793 790 788
662 666 668 666 667 676 686 696 704 711 715 717 720 728 734 740 746 749 767 758 754 766 769 773 777 779 785 786 794 797 806 801 812 801 799 800 794 790 791 792 793 794 795 796 796 796 795 795 795 793 791 789 786 783
659 664 669 670 673 682 691 696 705 711 713 718 722 730 734 749 746 749 746 756 758 761 767 770 779 780 785 786 795 801 811 816 804 799 811 797 788 788 789 791 792 793 795 795 795 795 794 792 791 790 787 784 783 780
657 664 669 673 676 686 693 700 707 712 715 718 721 732 738 745 741 737 735 745 750 754 758 765 774 778 784 791 797 807 800 800 818 831 808 797 787 788 788 788 790 792 793 794 793 792 791 790 788 786 784 781 778 774
656 664 668 673 680 688 699 704 710 714 714 721 719 728 747 741 742 744 748 747 749 750 755 765 775 778 793 796 795 799 801 825 814 804 797 790 785 786 787 788 789 790 791 791 790 789 788 786 784 781 778 775 773 769
654 662 666 672 683 694 701 707 713 714 717 722 732 738 739 745 748 749 745 746 748 751 755 760 781 791 795 796 804 813 810 810 796 796 783 782 783 784 785 786 787 787 788 788 787 786 785 782 780 777 773 770 768 765
651 650 660 672 685 697 704 709 714 720 724 728 736 730 739 737 741 743 742 745 746 749 766 772 782 788 796 807 800 799 801 788 785 783 781 779 780 782 783 784 784 785 786 786 784 782 780 778 776 771 767 763 763 760
646 650 660 674 686 699 707 712 717 723 733 735 734 740 738 735 738 741 744 745 748 754 760 771 776 793 794 796 797 784 782 783 781 779 779 779 779 779 780 780 781 782 782 781 779 777 775 772 770 767 764 761 758 755
640 649 665 677 687 693 706 716 716 728 736 739 740 740 741 740 744 745 745 747 748 750 758 769 780 788 778 779 778 783 783 778 776 778 778 778 777 777 777 777 778 777 777 777 775 773 770 768 765 762 759 757 754 751
642 658 672 684 689 693 707 719 717 723 736 741 742 747 745 747 750 751 751 751 754 762 762 767 762 760 761 762 765 767 768 770 774 778 777 776 775 774 774 774 774 774 774 772 770 768 764 760 758 757 755 753 751 746
650 666 676 683 690 696 708 719 724 728 736 743 747 747 754 753 758 760 763 760 764 767 762 761 756 758 758 758 760 763 765 767 771 773 774 777 773 772 771 772 772 772 771 767 765 761 759 756 753 752 751 748 746 743
651 666 677 684 692 703 714 718 720 728 737 745 747 749 754 762 769 768 768 769 770 759 756 756 758 758 759 760 762 763 764 766 769 771 772 772 772 771 769 769 769 767 764 762 761 757 753 753 750 748 747 744 742 738
659 670 679 685 695 705 723 719 722 732 734 747 750 753 765 772 771 771 773 771 761 754 753 753 754 757 759 761 763 764 765 766 768 769 770 770 769 768 767 766 765 764 761 757 757 755 752 749 748 746 743 741 738 733
663 673 683 689 695 713 717 726 726 732 739 743 747 760 765 768 771 776 767 768 755 753 753 754 755 760 762 763 765 763 764 765 766 767 768 768 767 765 764 762 761 760 758 756 754 752 750 748 746 743 740 737 735 731
667 686 689 701 705 708 718 731 732 729 738 745 749 758 762 767 767 776 768 758 757 754 753 754 757 759 764 765 763 762 762 763 763 764 763 764 764 762 760 759 758 757 755 754 752 749 747 744 742 739 736 734 732 728
677 691 690 699 707 701 713 716 722 726 730 744 757 765 767 759 764 758 756 752 748 748 749 750 755 761 762 761 761 761 762 762 763 762 761 762 762 762 760 759 756 754 754 753 751 747 744 741 738 736 733 731 729 725
681 695 693 692 695 699 705 710 711 713 723 736 753 759 748 742 755 749 745 741 741 740 742 746 751 753 755 757 759 761 761 761 761 761 761 760 759 759 758 757 756 754 751 749 747 745 741 738 736 733 730 727 725 723
684 689 689 699 698 699 700 709 710 717 728 733 736 734 730 738 741 743 741 739 739 740 743 748 752 754 755 757 758 758 758 759 759 759 759 760 759 758 757 756 753 751 749 747 745 743 740 737 734 731 728 724 721 719
690 689 689 699 698 705 713 711 715 722 725 725 727 742 744 742 740 738 740 739 740 743 745 749 752 753 754 756 756 757 758 758 757 761 762 760 757 757 756 753 751 749 746 744 742 741 738 735 732 729 725 722 719 716
690 690 694 704 703 714 725 725 721 724 727 729 731 737 739 740 739 739 739 740 742 744 746 748 749 751 753 754 756 757 757 757 757 759 761 759 756 754 752 750 748 746 744 742 740 738 735 732 729 726 722 718 716 713
688 691 700 711 721 727 727 727 725 726 731 735 738 739 740 741 738 739 739 740 742 744 745 747 749 751 752 754 755 756 756 757 757 756 755 754 753 751 750 749 747 745 743 741 739 736 732 730 727 723 720 717 715 713
694 696 698 710 724 730 729 728 730 734 740 741 744 742 742 740 740 739 738 739 741 742 744 746 748 750 752 753 754 754 754 755 755 754 753 752 750 749 748 747 745 744 742 740 737 734 731 729 726 723 720 717 715 712
699 700 703 713 724 727 730 729 735 739 742 744 746 749 748 745 739 737 737 738 740 741 744 746 748 749 751 752 753 753 753 753 752 751 750 749 749 748 748 746 744 743 741 737 734 732 730 728 727 724 721 718 715 712